Satellite: CO-58
Catalog number: 28895
Epoch time:      07221.38832024
Element set:     795
Inclination:      098.1271 deg
RA of node:       117.1931 deg
Eccentricity:    0.0017003
Arg of perigee:   309.6130 deg
Mean anomaly:     050.3508 deg
Mean motion:   14.59573475 rev/day
Decay rate:       -1.4e-07 rev/day^2
Epoch rev:            9485
Checksum:              306

Satellite: NCUBE2
Catalog number: 28897
Epoch time:      07220.22336169
Element set:    0322
Inclination:      098.1254 deg
RA of node:       116.0044 deg
Eccentricity:    0.0016680
Arg of perigee:   315.3997 deg
Mean anomaly:     044.5856 deg
Mean motion:   14.59737754 rev/day
Decay rate:        9.8e-07 rev/day^2
Epoch rev:           08696
Checksum:              329

Satellite: NMARS
Catalog number: 29662
Epoch time:      07126.39603970
Element set:     263
Inclination:      051.6121 deg
RA of node:       302.3682 deg
Eccentricity:    0.0004459
Arg of perigee:   252.1654 deg
Mean anomaly:     110.7411 deg
Mean motion:   16.47981436 rev/day
Decay rate:   7.031946e-02 rev/day^2
Epoch rev:            2165
Checksum:              289

Satellite: FCAL
Catalog number: 29667
Epoch time:      07221.34081796
Element set:     253
Inclination:      051.6310 deg
RA of node:       175.1639 deg
Eccentricity:    0.0012858
Arg of perigee:   185.5771 deg
Mean anomaly:     174.5071 deg
Mean motion:   15.89966955 rev/day
Decay rate:     1.5051e-04 rev/day^2
Epoch rev:            3645
Checksum:              321

Satellite: FALCON
Catalog number: 30776
Epoch time:      07219.47861947
Element set:    0119
Inclination:      035.4345 deg
RA of node:       261.7237 deg
Eccentricity:    0.0000794
Arg of perigee:   228.8513 deg
Mean anomaly:     131.2135 deg
Mean motion:   15.02745039 rev/day
Decay rate:       1.72e-06 rev/day^2
Epoch rev:           02277
Checksum:              289

Satellite: MAST
Catalog number: 31126
Epoch time:      07220.65062587
Element set:    0102
Inclination:      098.0778 deg
RA of node:       291.9290 deg
Eccentricity:    0.0094061
Arg of perigee:   222.7043 deg
Mean anomaly:     136.6821 deg
Mean motion:   14.53357345 rev/day
Decay rate:       3.93e-06 rev/day^2
Epoch rev:           01647
Checksum:              286

Satellite: CAPE1
Catalog number: 31130
Epoch time:      07220.69763345
Element set:      86
Inclination:      098.0794 deg
RA of node:       291.7076 deg
Eccentricity:    0.0102133
Arg of perigee:   223.3451 deg
Mean anomaly:     135.9663 deg
Mean motion:   14.51873654 rev/day
Decay rate:       -5.5e-07 rev/day^2
Epoch rev:            1623
Checksum:              286

/EX





More information about the Keps mailing list